CW4666 Weather Reports


time (UTC)temp
C
wind
direction
speed
KPH
gust
KPH
rain 1hr
cm
rain 24hr
cm
rain mn
cm
humidity
%
barometer
mb
20190616070605 15 4 14.5 24.1 0.00 0.00 0.00 88 1016.8
20190616070115 15 11 12.9 25.7 0.00 0.00 0.00 89 1016.8
20190616060605 14 0 8.0 19.3 0.00 0.00 0.00 92 1016.5
20190616050116 13 301 0.0 16.1 0.00 0.00 0.00 91 1016.6
20190616040605 13 342 3.2 12.9 0.00 0.00 0.00 90 1016.6
20190616040115 13 349 3.2 29.0 0.00 0.00 0.00 90 1016.6
20190616020605 13 5 12.9 20.9 0.00 0.00 0.00 88 1016.9
20190616000605 14 4 9.7 20.9 0.00 0.00 0.00 86 1018.0
20190615230131 14 8 12.9 25.7 0.00 0.00 0.00 84 1018.5
20190615200619 15 11 11.3 29.0 0.00 0.00 0.00 79 1018.4
20190615200131 15 1 12.9 32.2 0.00 0.00 0.00 78 1018.5
20190615190619 16 356 12.9 24.1 0.00 0.00 0.00 68 1018.6
20190615190129 16 6 12.9 32.2 0.00 0.00 0.00 67 1018.6
20190615160620 18 342 11.3 32.2 0.00 0.00 0.00 66 1019.0
20190615150619 19 351 11.3 22.5 0.00 0.00 0.00 59 1019.2
20190615150131 19 330 9.7 25.7 0.00 0.00 0.00 55 1019.2
20190615140133 20 291 12.9 27.4 0.00 0.00 0.00 61 1019.4
20190615130623 20 303 14.5 22.5 0.00 0.00 0.00 62 1019.8
20190615130128 20 294 12.9 22.5 0.00 0.00 0.00 62 1019.8
20190615120618 20 300 3.2 12.9 0.00 0.00 0.00 65 1019.8
20190615120134 19 330 1.6 19.3 0.00 0.00 0.00 67 1019.9
20190615110620 19 322 0.0 4.8 0.00 0.00 0.00 69 1019.7
20190615110130 20 211 0.0 19.3 0.00 0.00 0.00 68 1019.7
20190615100619 16 293 0.0 1.6 0.00 0.00 0.00 80 1019.8
20190615100127 16 289 0.0 9.7 0.00 0.00 0.00 82 1019.9
20190615090133 16 276 8.0 14.5 0.00 0.00 0.00 85 1019.7
20190615080617 16 213 1.6 4.8 0.00 0.00 0.00 84 1019.2